Weather History for Fort Eustis, VA

Change the Weather History Date:

Sunday, September 23, 2012

  Actual Average Record
Temperature  
Mean Temperature 64 °F -  
Max Temperature 71 °F 75 °F 93 °F (2010)
Min Temperature 54 °F 60 °F 52 °F (2013)
Growing Degree Days 14 (Base 50)    
Moisture  
Dew Point 55 °F    
Average Humidity 68    
Maximum Humidity 94    
Minimum Humidity 40    
Precipitation  
Precipitation 0.08 in - - ()
Sea Level Pressure  
Sea Level Pressure 30.04 in    
Wind  
Wind Speed 6 mph (NNW)    
Max Wind Speed 9 mph    
Max Gust Speed 20 mph    
Visibility 10 miles    
Events Rain , Thunderstorm    
Averages and records for this station are not official NWS values.
T = Trace of Precipitation, MM = Missing Value Source: NWS Daily Summary

Daily Weather History Graph

Daily Weather History Graph

Search for Another Location

Airport:

Trip Planner

Search our weather history database for the weather conditions in past years. The results will help you decide how hot, cold, wet, or windy it might be!

Date:

Astronomy

Sep. 23, 2012 Rise Set
Actual Time 6:55 AM EDT 7:01 PM EDT
Civil Twilight 6:29 AM EDT 7:27 PM EDT
Nautical Twilight 5:59 AM EDT 7:57 PM EDT
Astronomical Twilight 5:28 AM EDT 8:27 PM EDT
Moon 2:53 PM EDT (9/23) 12:12 AM EDT (9/23)
Length of Visible Light 12h 57m
Length of Day
12h 05m
First Quarter, 60% of the Moon is Illuminated
Sep 23
First Quarter
Sep 29
Full
Oct 8
Last Quarter
Oct 15
New
Oct 21
First Quarter

Hourly Weather History & Observations

Time (EDT) Temp. Dew Point Humidity Pressure Visibility Wind Dir Wind Speed Gust Speed Precip Events Conditions
12:16 AM 73.4 °F 66.2 °F 78% 29.93 in 10.0 mi SW 9.2 mph - N/A Rain Light Rain
12:47 AM 71.6 °F 66.2 °F 83% 29.95 in 6.0 mi WSW 9.2 mph 19.6 mph N/A Rain , Thunderstorm Thunderstorms and Rain
12:55 AM 69.8 °F 66.6 °F 89% 29.95 in 6.0 mi WSW 9.2 mph 18.4 mph 0.05 in Rain , Thunderstorm Light Thunderstorms and Rain
1:02 AM 68.0 °F 66.2 °F 94% 29.95 in 7.0 mi SW 6.9 mph - N/A Rain Light Rain
1:23 AM 68.0 °F 64.4 °F 88% 29.94 in 10.0 mi SW 3.5 mph - N/A   Mostly Cloudy
1:55 AM 68.0 °F 65.1 °F 90% 29.95 in 10.0 mi Variable 3.5 mph - 0.01 in   Overcast
2:16 AM 68.0 °F 64.4 °F 88% 29.96 in 10.0 mi Calm Calm - N/A   Light Drizzle
2:25 AM 68.0 °F 64.4 °F 88% 29.96 in 10.0 mi NW 3.5 mph - N/A   Overcast
2:55 AM 68.4 °F 64.4 °F 87% 29.96 in 10.0 mi North 3.5 mph - 0.00 in   Mostly Cloudy
3:55 AM 70.3 °F 64.4 °F 81% 29.97 in 10.0 mi NNW 8.1 mph - N/A   Overcast
4:14 AM 69.8 °F 62.6 °F 78% 29.98 in 10.0 mi North 8.1 mph - N/A   Light Drizzle
4:55 AM 67.8 °F 57.4 °F 69% 29.99 in 10.0 mi Variable 5.8 mph - 0.02 in Rain Light Rain
5:08 AM 66.2 °F 59.0 °F 78% 30.00 in 10.0 mi NE 3.5 mph - N/A   Overcast
5:55 AM 67.1 °F 57.2 °F 70% 30.02 in 10.0 mi North 9.2 mph - 0.00 in   Mostly Cloudy
6:55 AM 64.6 °F 53.6 °F 68% 30.04 in 10.0 mi North 9.2 mph - N/A   Mostly Cloudy
7:55 AM 63.5 °F 49.1 °F 59% 30.07 in 10.0 mi North 9.2 mph - N/A   Mostly Cloudy
8:55 AM 62.4 °F 47.7 °F 58% 30.10 in 10.0 mi North 8.1 mph - N/A   Mostly Cloudy
9:55 AM 63.9 °F 47.8 °F 56% 30.12 in 10.0 mi North 9.2 mph - N/A   Scattered Clouds
10:55 AM 65.5 °F 47.3 °F 52% 30.12 in 10.0 mi NNE 9.2 mph - N/A   Mostly Cloudy
11:55 AM 66.0 °F 47.8 °F 52% 30.12 in 10.0 mi North 8.1 mph - N/A   Clear
12:55 PM 67.8 °F 48.0 °F 49% 30.11 in 10.0 mi Variable 4.6 mph - N/A   Clear
1:55 PM 69.8 °F 48.2 °F 46% 30.10 in 10.0 mi NNE 5.8 mph - N/A   Clear
2:55 PM 70.0 °F 48.6 °F 46% 30.09 in 10.0 mi NW 4.6 mph - N/A   Clear
3:55 PM 70.7 °F 48.0 °F 44% 30.08 in 10.0 mi North 8.1 mph - N/A   Clear
4:55 PM 71.1 °F 47.1 °F 42% 30.08 in 10.0 mi Variable 4.6 mph - N/A   Clear
5:55 PM 70.2 °F 45.0 °F 40% 30.09 in 10.0 mi North 3.5 mph - N/A   Clear
6:55 PM 66.2 °F 51.1 °F 58% 30.10 in 10.0 mi NE 4.6 mph - N/A   Clear
7:55 PM 62.8 °F 48.7 °F 60% 30.12 in 10.0 mi NE 3.5 mph - N/A   Clear
9:55 PM 60.3 °F 47.7 °F 63% 30.15 in 10.0 mi Calm Calm - N/A   Clear
10:55 PM 56.5 °F 50.5 °F 80% 30.15 in 10.0 mi Calm Calm - N/A   Clear
11:55 PM 54.3 °F 51.3 °F 89% 30.15 in 10.0 mi Calm Calm - N/A   Clear